Preview of NWS' New Version of Forecast
This preview is not operational and should not be used for support decisions.

Regional Weather Roundup (RWR)

Issued by Gray - Portland, ME (GYX)

                            
451 
ASUS41 KGYX 211910
RWRGYX
WEATHER ROUNDUP FOR MAINE AND NEW HAMPSHIRE
NATIONAL WEATHER SERVICE GRAY ME
300 PM EDT MON MAY 21 2018

MEZ002-005-006-010-012-015-018-020-021-024-026-027-029-212000-
MAINE
  
CITY           SKY/WX    TMP DP  RH WIND       PRES   REMARKS
PORTLAND       FAIR      76  41  28 W13       30.02F                  
SANFORD        FAIR      77  36  22 NW12G24   30.06F                  
BAR HARBOR     FAIR      67  45  45 S20       29.98F                  
WISCASSET      FAIR      71  42  35 SW13G23   30.03F                  
ROCKLAND       FAIR      69  44  40 SW22G29   30.00F                  
FRYEBURG       FAIR      77  36  22 NW8       30.03F                  
LEWISTONAUBURN FAIR      76  37  24 NW12G20   30.01F                  
AUGUSTA        FAIR      76  36  23 W15G25    30.00F                  
WATERVILLE     FAIR      77  39  25 W15G22    29.96F                  
BANGOR         FAIR      77  34  21 W17G30    29.96F                  
GREENVILLE       N/A     71  36  27 W8G30     29.95F                  
MILLINOCKET    PTSUNNY   74  36  25 NW15G25   29.94S                  
HOULTON        PTSUNNY   70  36  28 W16G31    29.89S                  
PRESQUE ISLE   FAIR      66  32  28 NW17G30   29.93R                  
FRENCHVILLE    FAIR      61  19  19 NW23G37   29.95R                  
CARIBOU        FAIR      66  29  24 NW23G32   29.92R                  
$$

NHZ002-005-008-009-011-012-014-212000-
NEW HAMPSHIRE
  
CITY           SKY/WX    TMP DP  RH WIND       PRES   REMARKS
PORTSMOUTH     MOSUNNY   77  39  25 W14G20    30.05F                  
ROCHESTER      FAIR      77  40  26 NW18      30.05F                  
NASHUA         FAIR      77  39  25 W5G17     30.09F                  
MANCHESTER     FAIR      80  34  19 VRB6      30.07F                  
CONCORD        FAIR      78  38  23 W14G20    30.08F                  
LACONIA        FAIR      75  38  26 NW10G23   30.07F                  
PLYMOUTH       FAIR      75  36  23 NW8       30.06F                  
BERLIN         FAIR      73  37  27 W9G20     30.03F                  
WHITEFIELD     FAIR      73  40  30 VRB6G21   30.06F                  
JAFFREY        FAIR      74  39  28 N7        30.12F                  
KEENE          FAIR      79  40  24 W7        30.10F                  
LEBANON        FAIR      77  37  23 NW10G20   30.08F                  
MT WASHINGTON  MOSUNNY   45  30  57 NW49G60     N/A                   
$$

VTZ005-007-008-212000-
VERMONT
  
CITY           SKY/WX    TMP DP  RH WIND       PRES   REMARKS
ST JOHNSBURY     N/A     75  36  24 MISG      30.04F                  
MONTPELIER     FAIR      71  40  32 W14G25    30.13F                  
BURLINGTON     PTSUNNY   79  38  22 W10       30.07F                  
$$

MAZ007-012-024-CTZ003-RIZ002-NYZ038-NYZ072-212000-
SOUTHERN NEW ENGLAND AND NY
  
CITY           SKY/WX    TMP DP  RH WIND       PRES   REMARKS
BOSTON         FAIR      74  43  32 W10       30.10F                  
WORCESTER      FAIR      73  39  29 NW7       30.13F                  
NANTUCKET      FAIR      64  44  48 S8        30.15F                  
PROVIDENCE     FAIR      72  46  39 S16       30.13F                  
HARTFORD       FAIR      76  43  30 VRB3      30.12F                  
ALBANY         FAIR      77  42  28 VRB3      30.14F                  
NEW YORK CITY  FAIR      78  45  30 S9        30.15F                  
$$

ANZ081-ANZ082-ANZ150-NHZ014-MEZ023>029-212000-
COASTAL MARINE OBSERVATIONS
  
STATION/POSITION TIME  TEMP    WIND        PRES    WAVE
                       AIR SEA DIR/SP/G            HT/PER
                 (UTC) (F)     (DEG/KT/KT) (MB)    (FT/S)
MOUNT DESERT ROC 1900   53     210/ 22/ 23 1016.5F
MATINICUS ROCK   1900   55     220/ 24/ 25 1016.4F
ISLE OF SHOALS   1900   60     170/ 22/ 23 1017.9F
JEFFREYS LEDGE   1836      55                N/A     2/ 8
CASHES LEDGE BUO 1850   57 50              1018.3F   3/ 9
$$

.............KEY..............
   WCI - WIND CHILL
   TC  - TEMPERATURE IN CELSIUS
   VSB - VISIBILITY IN MILES
   HX  - HEAT INDEX
   FAIR- INDICATES FEW OR NO CLOUDS BELOW 12,000 FT, WITH NO 
         SIGNIFICANT WEATHER AND/OR OBSTRUCTIONS TO VISIBILITY.